| time (UTC) | temp F | wind direction | speed MPH | gust MPH | rain 1hr in | rain 24hr in | rain mn in | humidity % | barometer mb |
| 20260502190617 | 65 | 78 | 3.0 | 9.0 | 0.00 | 0.00 | 0.00 | 60 | 1019.2 |
| 20260502190114 | 64 | 24 | 3.0 | 7.0 | 0.00 | 0.00 | 0.00 | 61 | 1019.6 |
| 20260502185609 | 64 | 350 | 2.0 | 6.0 | 0.00 | 0.00 | 0.00 | 61 | 1019.6 |
| 20260502185106 | 64 | 1 | 6.0 | 7.0 | 0.00 | 0.00 | 0.00 | 61 | 1019.6 |
| 20260502184602 | 64 | 84 | 6.0 | 8.0 | 0.00 | 0.00 | 0.00 | 61 | 1019.6 |
| 20260502184057 | 64 | 59 | 3.0 | 4.0 | 0.00 | 0.00 | 0.00 | 62 | 1019.6 |
| 20260502183554 | 64 | 108 | 1.0 | 3.0 | 0.00 | 0.00 | 0.00 | 62 | 1019.6 |
| 20260502183050 | 65 | 69 | 1.0 | 6.0 | 0.00 | 0.00 | 0.00 | 63 | 1019.6 |
| 20260502182546 | 65 | 63 | 1.0 | 6.0 | 0.00 | 0.00 | 0.00 | 63 | 1019.6 |
| 20260502182042 | 64 | 141 | 1.0 | 8.0 | 0.00 | 0.00 | 0.00 | 64 | 1019.6 |
| 20260502181540 | 65 | 107 | 0.0 | 3.0 | 0.00 | 0.00 | 0.00 | 64 | 1019.6 |
| 20260502181038 | 64 | 341 | 3.0 | 4.0 | 0.00 | 0.00 | 0.00 | 64 | 1019.6 |
| 20260502180535 | 63 | 11 | 2.0 | 6.0 | 0.00 | 0.00 | 0.00 | 67 | 1019.6 |
| 20260502170454 | 60 | 311 | 1.0 | 7.0 | 0.00 | 0.00 | 0.00 | 72 | 1019.9 |
| 20260502163937 | 57 | 305 | 2.0 | 4.0 | 0.00 | 0.00 | 0.00 | 75 | 1019.9 |
| 20260502163433 | 57 | 52 | 1.0 | 3.0 | 0.00 | 0.00 | 0.00 | 76 | 1019.6 |
| 20260502162931 | 56 | 306 | 2.0 | 3.0 | 0.00 | 0.00 | 0.00 | 76 | 1019.9 |
| 20260502162428 | 56 | 316 | 1.0 | 3.0 | 0.00 | 0.00 | 0.00 | 77 | 1019.9 |
| 20260502161925 | 56 | 224 | 3.0 | 6.0 | 0.00 | 0.00 | 0.00 | 77 | 1019.6 |
| 20260502161421 | 56 | 46 | 3.0 | 4.0 | 0.00 | 0.00 | 0.00 | 77 | 1019.6 |
| 20260502160919 | 55 | 3 | 2.0 | 6.0 | 0.00 | 0.00 | 0.00 | 78 | 1019.6 |
| 20260502160417 | 55 | 21 | 4.0 | 6.0 | 0.00 | 0.00 | 0.00 | 78 | 1019.6 |
| 20260502151855 | 51 | 324 | 2.0 | 3.0 | 0.00 | 0.00 | 0.00 | 94 | 1019.6 |
| 20260502151351 | 51 | 28 | 1.0 | 1.0 | 0.00 | 0.00 | 0.00 | 94 | 1019.6 |
| 20260502150849 | 51 | 82 | 0.0 | 1.0 | 0.00 | 0.00 | 0.00 | 94 | 1019.6 |
| 20260502150345 | 50 | 82 | 1.0 | 2.0 | 0.00 | 0.00 | 0.00 | 95 | 1019.6 |
| 20260502130734 | 47 | 92 | 0.0 | 1.0 | 0.00 | 0.00 | 0.00 | 95 | 1019.6 |
| 20260502130231 | 47 | 127 | 0.0 | 0.0 | 0.00 | 0.00 | 0.00 | 95 | 1019.2 |
| 20260502123717 | 47 | 117 | 1.0 | 1.0 | 0.00 | 0.00 | 0.00 | 94 | 1019.2 |
| 20260502123214 | 47 | 134 | 0.0 | 0.0 | 0.00 | 0.00 | 0.00 | 94 | 1019.2 |
| 20260502122710 | 46 | 134 | 0.0 | 0.0 | 0.00 | 0.00 | 0.00 | 94 | 1019.2 |
| 20260502122207 | 47 | 134 | 0.0 | 0.0 | 0.00 | 0.00 | 0.00 | 94 | 1019.2 |
| 20260502121705 | 47 | 134 | 0.0 | 0.0 | 0.00 | 0.00 | 0.00 | 94 | 1019.2 |
| 20260502121203 | 47 | 122 | 0.0 | 0.0 | 0.00 | 0.00 | 0.00 | 94 | 1019.2 |
| 20260502120659 | 47 | 125 | 0.0 | 1.0 | 0.00 | 0.00 | 0.00 | 94 | 1019.2 |
| 20260502120156 | 46 | 166 | 0.0 | 1.0 | 0.00 | 0.00 | 0.00 | 94 | 1019.2 |
| 20260502115654 | 46 | 166 | 1.0 | 1.0 | 0.00 | 0.00 | 0.00 | 94 | 1019.2 |
| 20260502115149 | 46 | 139 | 0.0 | 0.0 | 0.00 | 0.00 | 0.00 | 93 | 1019.2 |
| 20260502114646 | 46 | 140 | 0.0 | 1.0 | 0.00 | 0.00 | 0.00 | 93 | 1019.2 |
| 20260502114143 | 47 | 134 | 0.0 | 0.0 | 0.00 | 0.00 | 0.00 | 93 | 1018.9 |
| 20260502113640 | 47 | 134 | 1.0 | 1.0 | 0.00 | 0.00 | 0.00 | 93 | 1018.5 |
| 20260502113139 | 47 | 134 | 0.0 | 1.0 | 0.00 | 0.00 | 0.00 | 93 | 1018.9 |
| 20260502112636 | 47 | 134 | 0.0 | 0.0 | 0.00 | 0.00 | 0.00 | 93 | 1018.9 |
| 20260502112133 | 47 | 134 | 0.0 | 0.0 | 0.00 | 0.00 | 0.00 | 93 | 1018.5 |
| 20260502111631 | 47 | 134 | 0.0 | 0.0 | 0.00 | 0.00 | 0.00 | 93 | 1018.9 |
| 20260502111128 | 47 | 134 | 0.0 | 0.0 | 0.00 | 0.00 | 0.00 | 93 | 1018.9 |
| 20260502110626 | 47 | 134 | 0.0 | 1.0 | 0.00 | 0.00 | 0.00 | 93 | 1018.9 |
| 20260502110123 | 48 | 135 | 0.0 | 0.0 | 0.00 | 0.00 | 0.00 | 93 | 1018.9 |
| 20260502105620 | 48 | 135 | 0.0 | 1.0 | 0.00 | 0.00 | 0.00 | 93 | 1018.9 |
| 20260502105117 | 47 | 130 | 0.0 | 0.0 | 0.00 | 0.00 | 0.00 | 92 | 1018.9 |
| 20260502104614 | 48 | 128 | 0.0 | 2.0 | 0.00 | 0.00 | 0.00 | 93 | 1018.9 |
| 20260502104112 | 47 | 118 | 0.0 | 0.0 | 0.00 | 0.00 | 0.00 | 92 | 1018.9 |
| 20260502103609 | 48 | 139 | 1.0 | 1.0 | 0.00 | 0.00 | 0.00 | 92 | 1018.9 |
| 20260502103108 | 48 | 77 | 0.0 | 0.0 | 0.00 | 0.00 | 0.00 | 92 | 1018.9 |
| 20260502102604 | 48 | 77 | 0.0 | 0.0 | 0.00 | 0.00 | 0.00 | 92 | 1019.2 |
| 20260502102101 | 48 | 77 | 0.0 | 0.0 | 0.00 | 0.00 | 0.00 | 92 | 1019.2 |
| 20260502101559 | 48 | 77 | 0.0 | 0.0 | 0.00 | 0.00 | 0.00 | 92 | 1019.2 |
| 20260502101057 | 48 | 77 | 0.0 | 0.0 | 0.00 | 0.00 | 0.00 | 92 | 1018.9 |
| 20260502100555 | 48 | 77 | 0.0 | 1.0 | 0.00 | 0.00 | 0.00 | 91 | 1018.9 |
| 20260502091529 | 48 | 198 | 0.0 | 1.0 | 0.00 | 0.00 | 0.00 | 91 | 1018.9 |
| 20260502091027 | 48 | 198 | 0.0 | 3.0 | 0.00 | 0.00 | 0.00 | 90 | 1018.9 |
| 20260502090524 | 49 | 140 | 0.0 | 1.0 | 0.00 | 0.00 | 0.00 | 90 | 1018.9 |
| 20260502071418 | 51 | 252 | 2.0 | 2.0 | 0.00 | 0.00 | 0.00 | 86 | 1018.5 |
| 20260502070916 | 51 | 95 | 1.0 | 4.0 | 0.00 | 0.00 | 0.00 | 86 | 1018.5 |
| 20260502070414 | 51 | 80 | 1.0 | 2.0 | 0.00 | 0.00 | 0.00 | 86 | 1018.5 |
| 20260502065912 | 51 | 0 | 1.0 | 3.0 | 0.00 | 0.00 | 0.00 | 85 | 1018.5 |
| 20260502065410 | 51 | 32 | 1.0 | 3.0 | 0.00 | 0.00 | 0.00 | 85 | 1018.9 |
| 20260502064908 | 51 | 86 | 1.0 | 2.0 | 0.00 | 0.00 | 0.00 | 85 | 1018.9 |
| 20260502064406 | 51 | 64 | 2.0 | 6.0 | 0.00 | 0.00 | 0.00 | 85 | 1018.5 |
| 20260502063903 | 51 | 117 | 1.0 | 7.0 | 0.00 | 0.00 | 0.00 | 84 | 1018.5 |
| 20260502063400 | 51 | 5 | 3.0 | 7.0 | 0.00 | 0.00 | 0.00 | 84 | 1018.5 |
| 20260502062858 | 51 | 30 | 2.0 | 4.0 | 0.00 | 0.00 | 0.00 | 84 | 1018.5 |
| 20260502062355 | 52 | 58 | 1.0 | 2.0 | 0.00 | 0.00 | 0.00 | 83 | 1018.5 |
| 20260502061854 | 52 | 111 | 1.0 | 3.0 | 0.00 | 0.00 | 0.00 | 83 | 1018.5 |
| 20260502061351 | 52 | 87 | 0.0 | 3.0 | 0.00 | 0.00 | 0.00 | 82 | 1018.5 |
| 20260502060847 | 52 | 67 | 0.0 | 4.0 | 0.00 | 0.00 | 0.00 | 83 | 1018.5 |
| 20260502060342 | 52 | 215 | 1.0 | 2.0 | 0.00 | 0.00 | 0.00 | 82 | 1018.5 |
| 20260502055840 | 52 | 216 | 4.0 | 6.0 | 0.00 | 0.00 | 0.00 | 82 | 1018.5 |
| 20260502055338 | 52 | 62 | 1.0 | 3.0 | 0.00 | 0.00 | 0.00 | 82 | 1018.2 |
| 20260502054837 | 52 | 124 | 2.0 | 3.0 | 0.00 | 0.00 | 0.00 | 82 | 1018.5 |
| 20260502054334 | 52 | 1 | 2.0 | 8.0 | 0.00 | 0.00 | 0.00 | 81 | 1018.5 |
| 20260502053831 | 52 | 59 | 1.0 | 6.0 | 0.00 | 0.00 | 0.00 | 81 | 1018.5 |
| 20260502053328 | 52 | 57 | 2.0 | 6.0 | 0.00 | 0.00 | 0.00 | 81 | 1018.5 |
| 20260502052826 | 53 | 341 | 3.0 | 6.0 | 0.00 | 0.00 | 0.00 | 81 | 1018.2 |
| 20260502052324 | 53 | 6 | 2.0 | 4.0 | 0.00 | 0.00 | 0.00 | 80 | 1018.5 |
| 20260502051821 | 53 | 102 | 1.0 | 10.0 | 0.00 | 0.00 | 0.00 | 80 | 1018.5 |
| 20260502051320 | 53 | 88 | 2.0 | 9.0 | 0.00 | 0.00 | 0.00 | 80 | 1018.5 |
| 20260502050816 | 53 | 32 | 2.0 | 6.0 | 0.00 | 0.00 | 0.00 | 79 | 1018.5 |
| 20260502050313 | 53 | 6 | 5.0 | 7.0 | 0.00 | 0.00 | 0.00 | 78 | 1018.5 |
| 20260502045810 | 53 | 65 | 2.0 | 4.0 | 0.00 | 0.00 | 0.00 | 79 | 1018.5 |
| 20260502045306 | 53 | 343 | 2.0 | 10.0 | 0.00 | 0.00 | 0.00 | 80 | 1018.5 |
| 20260502044804 | 53 | 9 | 1.0 | 4.0 | 0.00 | 0.00 | 0.00 | 79 | 1018.2 |
| 20260502044259 | 54 | 357 | 2.0 | 7.0 | 0.00 | 0.00 | 0.00 | 79 | 1018.2 |
| 20260502043757 | 54 | 114 | 2.0 | 7.0 | 0.00 | 0.00 | 0.00 | 78 | 1018.2 |
| 20260502043254 | 54 | 65 | 2.0 | 6.0 | 0.00 | 0.00 | 0.00 | 78 | 1017.9 |
| 20260502042753 | 54 | 91 | 2.0 | 7.0 | 0.00 | 0.00 | 0.00 | 77 | 1018.2 |
| 20260502042251 | 54 | 104 | 3.0 | 7.0 | 0.00 | 0.00 | 0.00 | 77 | 1018.2 |
| 20260502041749 | 54 | 105 | 1.0 | 7.0 | 0.00 | 0.00 | 0.00 | 77 | 1018.2 |
| 20260502041246 | 54 | 306 | 3.0 | 7.0 | 0.00 | 0.00 | 0.00 | 77 | 1018.2 |
| 20260502040743 | 54 | 104 | 1.0 | 6.0 | 0.00 | 0.00 | 0.00 | 77 | 1018.2 |
| 20260502040239 | 54 | 103 | 1.0 | 4.0 | 0.00 | 0.00 | 0.00 | 77 | 1018.2 |
| 20260502035735 | 55 | 344 | 2.0 | 6.0 | 0.00 | 0.00 | 0.00 | 77 | 1018.2 |
| 20260502035232 | 55 | 312 | 2.0 | 7.0 | 0.00 | 0.00 | 0.00 | 76 | 1018.2 |
| 20260502034730 | 55 | 1 | 6.0 | 9.0 | 0.00 | 0.00 | 0.00 | 75 | 1017.9 |
| 20260502034228 | 56 | 18 | 4.0 | 10.0 | 0.00 | 0.00 | 0.00 | 73 | 1017.9 |
| 20260502033726 | 56 | 228 | 2.0 | 7.0 | 0.00 | 0.00 | 0.00 | 73 | 1017.9 |
| 20260502033223 | 56 | 339 | 3.0 | 7.0 | 0.00 | 0.00 | 0.00 | 72 | 1017.9 |
| 20260502032720 | 56 | 12 | 2.0 | 6.0 | 0.00 | 0.00 | 0.00 | 73 | 1017.9 |
| 20260502032216 | 56 | 187 | 1.0 | 8.0 | 0.00 | 0.00 | 0.00 | 72 | 1017.9 |
| 20260502031714 | 56 | 281 | 2.0 | 10.0 | 0.00 | 0.00 | 0.00 | 72 | 1017.9 |
| 20260502031212 | 56 | 20 | 2.0 | 9.0 | 0.00 | 0.00 | 0.00 | 72 | 1017.9 |
| 20260502030710 | 56 | 350 | 3.0 | 8.0 | 0.00 | 0.00 | 0.00 | 71 | 1017.9 |
| 20260502030208 | 56 | 109 | 1.0 | 8.0 | 0.00 | 0.00 | 0.00 | 72 | 1017.5 |
| 20260502025705 | 56 | 338 | 3.0 | 9.0 | 0.00 | 0.00 | 0.00 | 73 | 1017.5 |
| 20260502025203 | 56 | 344 | 2.0 | 6.0 | 0.00 | 0.00 | 0.00 | 73 | 1017.5 |
| 20260502024700 | 56 | 120 | 1.0 | 6.0 | 0.00 | 0.00 | 0.00 | 73 | 1017.5 |
| 20260502024158 | 56 | 70 | 3.0 | 7.0 | 0.00 | 0.00 | 0.00 | 73 | 1017.5 |
| 20260502023656 | 56 | 32 | 5.0 | 9.0 | 0.00 | 0.00 | 0.00 | 74 | 1017.5 |
| 20260502023153 | 56 | 346 | 2.0 | 3.0 | 0.00 | 0.00 | 0.00 | 75 | 1017.5 |
| 20260502022650 | 56 | 339 | 2.0 | 3.0 | 0.00 | 0.00 | 0.00 | 75 | 1017.5 |
| 20260502022147 | 56 | 308 | 2.0 | 4.0 | 0.00 | 0.00 | 0.00 | 75 | 1017.5 |
| 20260502021644 | 56 | 10 | 2.0 | 4.0 | 0.00 | 0.00 | 0.00 | 75 | 1017.2 |
| 20260502021141 | 57 | 94 | 2.0 | 6.0 | 0.00 | 0.00 | 0.00 | 74 | 1017.2 |
| 20260502020638 | 57 | 329 | 5.0 | 8.0 | 0.00 | 0.00 | 0.00 | 74 | 1017.5 |
| 20260502020135 | 57 | 332 | 1.0 | 4.0 | 0.00 | 0.00 | 0.00 | 73 | 1017.5 |
| 20260502015633 | 57 | 74 | 3.0 | 8.0 | 0.00 | 0.00 | 0.00 | 74 | 1017.5 |
| 20260502015129 | 57 | 257 | 2.0 | 3.0 | 0.00 | 0.00 | 0.00 | 74 | 1017.5 |
| 20260502014627 | 57 | 345 | 2.0 | 6.0 | 0.00 | 0.00 | 0.00 | 74 | 1017.5 |
| 20260502014124 | 57 | 353 | 4.0 | 10.0 | 0.00 | 0.00 | 0.00 | 73 | 1017.5 |
| 20260502013620 | 58 | 307 | 4.0 | 7.0 | 0.00 | 0.00 | 0.00 | 73 | 1017.5 |
| 20260502013115 | 58 | 190 | 1.0 | 4.0 | 0.00 | 0.00 | 0.00 | 74 | 1017.5 |
| 20260502012613 | 57 | 229 | 2.0 | 4.0 | 0.00 | 0.00 | 0.00 | 74 | 1017.9 |
| 20260502012111 | 57 | 105 | 1.0 | 7.0 | 0.00 | 0.00 | 0.00 | 74 | 1017.9 |
| 20260502011607 | 57 | 290 | 2.0 | 4.0 | 0.00 | 0.00 | 0.00 | 74 | 1017.9 |
| 20260502011103 | 58 | 354 | 5.0 | 8.0 | 0.00 | 0.00 | 0.00 | 74 | 1017.5 |
| 20260502010601 | 58 | 101 | 1.0 | 2.0 | 0.00 | 0.00 | 0.00 | 75 | 1017.5 |
| 20260502010057 | 58 | 89 | 2.0 | 4.0 | 0.00 | 0.00 | 0.00 | 75 | 1017.9 |
| 20260502005555 | 59 | 343 | 1.0 | 8.0 | 0.00 | 0.00 | 0.00 | 75 | 1017.5 |
| 20260502005052 | 59 | 357 | 5.0 | 8.0 | 0.00 | 0.00 | 0.00 | 74 | 1017.5 |
| 20260502004548 | 58 | 339 | 4.0 | 6.0 | 0.00 | 0.00 | 0.00 | 75 | 1017.9 |
| 20260502004045 | 58 | 324 | 2.0 | 6.0 | 0.00 | 0.00 | 0.00 | 74 | 1017.9 |
| 20260502003543 | 59 | 261 | 3.0 | 9.0 | 0.00 | 0.00 | 0.00 | 73 | 1017.9 |
| 20260502003039 | 59 | 16 | 3.0 | 9.0 | 0.00 | 0.00 | 0.00 | 72 | 1017.9 |
| 20260502002536 | 59 | 323 | 2.0 | 6.0 | 0.00 | 0.00 | 0.00 | 72 | 1017.9 |
| 20260502002033 | 59 | 80 | 1.0 | 10.0 | 0.00 | 0.00 | 0.00 | 72 | 1017.9 |
| 20260502001531 | 59 | 39 | 3.0 | 8.0 | 0.00 | 0.00 | 0.00 | 72 | 1017.9 |
| 20260502001028 | 60 | 13 | 4.0 | 7.0 | 0.00 | 0.00 | 0.00 | 70 | 1017.9 |
| 20260502000526 | 62 | 9 | 4.0 | 6.0 | 0.00 | 0.00 | 0.00 | 67 | 1017.9 |
| 20260502000023 | 61 | 25 | 1.0 | 3.0 | 0.00 | 0.00 | 0.00 | 68 | 1017.9 |
| 20260501235519 | 61 | 317 | 2.0 | 3.0 | 0.00 | 0.00 | 0.00 | 68 | 1017.9 |
| 20260501235014 | 60 | 266 | 2.0 | 10.0 | 0.00 | 0.00 | 0.00 | 71 | 1017.9 |
| 20260501234510 | 59 | 323 | 4.0 | 10.0 | 0.00 | 0.00 | 0.00 | 71 | 1017.9 |
| 20260501234009 | 59 | 343 | 2.0 | 6.0 | 0.00 | 0.00 | 0.00 | 72 | 1017.9 |
| 20260501233507 | 60 | 330 | 6.0 | 7.0 | 0.00 | 0.00 | 0.00 | 69 | 1017.9 |
| 20260501233002 | 61 | 27 | 2.0 | 8.0 | 0.00 | 0.00 | 0.00 | 68 | 1017.9 |
| 20260501232459 | 61 | 334 | 1.0 | 4.0 | 0.00 | 0.00 | 0.00 | 67 | 1017.9 |
| 20260501231956 | 62 | 133 | 1.0 | 9.0 | 0.00 | 0.00 | 0.00 | 66 | 1017.9 |
| 20260501231455 | 62 | 77 | 1.0 | 7.0 | 0.00 | 0.00 | 0.00 | 67 | 1018.2 |
| 20260501230952 | 64 | 62 | 2.0 | 3.0 | 0.00 | 0.00 | 0.00 | 64 | 1018.2 |
| 20260501230451 | 63 | 62 | 1.0 | 7.0 | 0.00 | 0.00 | 0.00 | 65 | 1018.2 |
| 20260501225948 | 62 | 245 | 4.0 | 4.0 | 0.00 | 0.00 | 0.00 | 65 | 1018.2 |
| 20260501225446 | 62 | 129 | 1.0 | 7.0 | 0.00 | 0.00 | 0.00 | 66 | 1018.5 |
| 20260501224941 | 61 | 338 | 2.0 | 9.0 | 0.00 | 0.00 | 0.00 | 67 | 1018.2 |
| 20260501224439 | 61 | 49 | 1.0 | 7.0 | 0.00 | 0.00 | 0.00 | 66 | 1018.5 |
| 20260501223936 | 61 | 338 | 4.0 | 7.0 | 0.00 | 0.00 | 0.00 | 67 | 1018.5 |
| 20260501223432 | 60 | 335 | 6.0 | 7.0 | 0.00 | 0.00 | 0.00 | 67 | 1018.5 |
| 20260501222928 | 62 | 149 | 2.0 | 6.0 | 0.00 | 0.00 | 0.00 | 66 | 1018.5 |
| 20260501222425 | 61 | 1 | 2.0 | 6.0 | 0.00 | 0.00 | 0.00 | 66 | 1018.5 |
| 20260501221921 | 60 | 288 | 4.0 | 7.0 | 0.00 | 0.00 | 0.00 | 66 | 1018.5 |
| 20260501221419 | 59 | 0 | 4.0 | 6.0 | 0.00 | 0.00 | 0.00 | 67 | 1018.9 |
| 20260501220917 | 61 | 113 | 1.0 | 6.0 | 0.00 | 0.00 | 0.00 | 65 | 1018.5 |
| 20260501220414 | 62 | 58 | 1.0 | 10.0 | 0.00 | 0.00 | 0.00 | 63 | 1018.9 |
| 20260501215910 | 63 | 37 | 2.0 | 6.0 | 0.00 | 0.00 | 0.00 | 61 | 1018.9 |
| 20260501215407 | 62 | 114 | 1.0 | 4.0 | 0.00 | 0.00 | 0.00 | 62 | 1018.5 |
| 20260501214902 | 63 | 86 | 3.0 | 9.0 | 0.00 | 0.00 | 0.00 | 59 | 1018.9 |
| 20260501214357 | 62 | 57 | 4.0 | 8.0 | 0.00 | 0.00 | 0.00 | 62 | 1018.9 |
| 20260501213853 | 62 | 79 | 1.0 | 10.0 | 0.00 | 0.00 | 0.00 | 64 | 1018.9 |
| 20260501213350 | 62 | 124 | 0.0 | 2.0 | 0.00 | 0.00 | 0.00 | 64 | 1018.9 |
| 20260501212840 | 60 | 16 | 2.0 | 4.0 | 0.00 | 0.00 | 0.00 | 67 | 1018.9 |
| 20260501212337 | 63 | 304 | 4.0 | 9.0 | 0.00 | 0.00 | 0.00 | 65 | 1018.9 |
| 20260501211834 | 62 | 91 | 2.0 | 6.0 | 0.00 | 0.00 | 0.00 | 67 | 1018.9 |
| 20260501211332 | 60 | 90 | 3.0 | 8.0 | 0.00 | 0.00 | 0.00 | 70 | 1018.9 |
| 20260501210829 | 62 | 311 | 6.0 | 9.0 | 0.00 | 0.00 | 0.00 | 66 | 1018.9 |
| 20260501210326 | 61 | 104 | 0.0 | 9.0 | 0.00 | 0.00 | 0.00 | 70 | 1018.5 |
| 20260501205822 | 61 | 287 | 4.0 | 10.0 | 0.00 | 0.00 | 0.00 | 69 | 1018.9 |
| 20260501205319 | 61 | 80 | 3.0 | 6.0 | 0.00 | 0.00 | 0.00 | 69 | 1018.9 |
| 20260501204816 | 60 | 51 | 5.0 | 9.0 | 0.00 | 0.00 | 0.00 | 70 | 1018.5 |
| 20260501204312 | 60 | 251 | 4.0 | 6.0 | 0.00 | 0.00 | 0.00 | 72 | 1018.9 |
| 20260501203808 | 63 | 315 | 6.0 | 9.0 | 0.00 | 0.00 | 0.00 | 67 | 1018.9 |
| 20260501203306 | 61 | 83 | 1.0 | 4.0 | 0.00 | 0.00 | 0.00 | 71 | 1018.9 |
| 20260501202803 | 60 | 52 | 1.0 | 6.0 | 0.00 | 0.00 | 0.00 | 72 | 1018.9 |
| 20260501202300 | 62 | 29 | 4.0 | 11.0 | 0.00 | 0.00 | 0.00 | 70 | 1018.9 |
| 20260501201757 | 60 | 50 | 0.0 | 2.0 | 0.00 | 0.00 | 0.00 | 72 | 1018.9 |
| 20260501201253 | 58 | 280 | 1.0 | 3.0 | 0.00 | 0.00 | 0.00 | 75 | 1018.9 |
| 20260501200750 | 58 | 312 | 4.0 | 8.0 | 0.00 | 0.00 | 0.00 | 75 | 1018.9 |
| 20260501200247 | 58 | 226 | 2.0 | 4.0 | 0.00 | 0.00 | 0.00 | 75 | 1018.9 |
| 20260501195745 | 58 | 23 | 3.0 | 6.0 | 0.00 | 0.00 | 0.00 | 75 | 1019.2 |
| 20260501195240 | 61 | 219 | 1.0 | 7.0 | 0.00 | 0.00 | 0.00 | 71 | 1018.9 |
| 20260501194737 | 61 | 55 | 2.0 | 2.0 | 0.00 | 0.00 | 0.00 | 70 | 1018.9 |
| 20260501194233 | 58 | 196 | 2.0 | 3.0 | 0.00 | 0.00 | 0.00 | 74 | 1018.9 |
| 20260501193729 | 60 | 0 | 5.0 | 8.0 | 0.00 | 0.00 | 0.00 | 73 | 1018.9 |
| 20260501193228 | 61 | 18 | 2.0 | 6.0 | 0.00 | 0.00 | 0.00 | 72 | 1018.9 |
| 20260501192725 | 61 | 118 | 0.0 | 3.0 | 0.00 | 0.00 | 0.00 | 72 | 1019.2 |
| 20260501192222 | 59 | 157 | 1.0 | 3.0 | 0.00 | 0.00 | 0.00 | 73 | 1018.9 |
| 20260501191719 | 59 | 266 | 2.0 | 6.0 | 0.00 | 0.00 | 0.00 | 73 | 1019.2 |
| 20260501191216 | 61 | 300 | 2.0 | 3.0 | 0.00 | 0.00 | 0.00 | 70 | 1019.2 |
| 20260501190712 | 60 | 100 | 1.0 | 4.0 | 0.00 | 0.00 | 0.00 | 73 | 1019.2 |